Overview Statistics Trail Chart Weather Telemetry Raw packets
 

This is the latest recevied weather packets stored in our database for station/object N7ZAP. If no packets are shown the sender has not sent any weather packets the latest 10 day(s).

<< 20 21 22 23 24 25 26 >>
Time Temp. Humidity Pressure Rain* Wind** Luminosity Snow
1788556486 31.11° C 33% 1018.9 hPa 0 mm - - -
1788556182 30.56° C 35% 1019 hPa 0 mm - - -
1788555881 30° C 36% 1018.7 hPa 0 mm - - -
1788555577 29.44° C 37% 1019 hPa 0 mm - - -
1788555272 30° C 37% 1019 hPa 0 mm - - -
1788554970 30° C 36% 1019.1 hPa 0 mm - - -
1788554665 30.56° C 36% 1019.1 hPa 0 mm - - -
1788554361 30.56° C 36% 1019.2 hPa 0 mm - - -
1788554057 31.11° C 36% 1019.5 hPa 0 mm - - -
1788553752 31.11° C 35% 1019.4 hPa 0 mm - - -
1788553449 31.67° C 34% 1019.5 hPa 0 mm - - -
1788553144 31.67° C 34% 1019.5 hPa 0 mm - - -
1788552839 31.67° C 35% 1019.6 hPa 0 mm - - -
1788552535 31.11° C 35% 1019.6 hPa 0 mm - - -
1788552233 31.11° C 37% 1019.6 hPa 0 mm - - -
1788551928 31.11° C 37% 1019.6 hPa 0 mm - - -
1788551626 31.11° C 37% 1019.7 hPa 0 mm - - -
1788551325 30.56° C 38% 1020.1 hPa 0 mm - - -
1788551020 30° C 38% 1020.1 hPa 0 mm - - -
1788550716 29.44° C 41% 1020.3 hPa 0 mm - - -
1788550411 29.44° C 42% 1020.3 hPa 0 mm - - -
1788550106 29.44° C 41% 1020.3 hPa 0 mm - - -
1788549801 29.44° C 45% 1020.5 hPa 0 mm - - -
1788549499 29.44° C 43% 1020.5 hPa 0 mm - - -
1788549195 28.89° C 46% 1021 hPa 0 mm - - -

* Rain latest hour (hover to see other rain measurements)
** Current wind speed in m/s (hover to see current wind gust speed)